CGVVD CYZR-CYKF

Flight info

Callsign CGVVD
Flight time N/A
Altitude 5000
Route CYGD DCT CYSA
Aircraft BE58/L-SDFGRY/C

Departure

Time 2026-05-03 20:39
Airport Chris Hadfield Airport (CYZR)

Arrival

Time N/A
Airport Region of Waterloo International Airport (CYKF)
Time Latitude Longitude Altitude Speed Heading
2026-05-03 20:35 42.99849 -82.30788 595 ft 5 kts 136°
2026-05-03 20:35 42.99837 -82.30751 596 ft 6 kts 288°
2026-05-03 20:35 42.99857 -82.30795 596 ft 7 kts 316°
2026-05-03 20:36 42.99903 -82.30853 595 ft 4 kts 318°
2026-05-03 20:36 42.99903 -82.30854 595 ft 0 kts 318°
2026-05-03 20:37 42.99926 -82.30881 595 ft 12 kts 327°
2026-05-03 20:38 43.00019 -82.30832 593 ft 20 kts 44°
2026-05-03 20:38 43.00124 -82.30682 591 ft 24 kts 47°
2026-05-03 20:38 43.00230 -82.30519 589 ft 22 kts 47°
2026-05-03 20:38 43.00294 -82.30436 589 ft 5 kts 273°
2026-05-03 20:39 43.00187 -82.30593 590 ft 63 kts 226°
2026-05-03 20:39 42.99773 -82.31207 787 ft 102 kts 230°
2026-05-03 20:39 42.99314 -82.31962 1246 ft 99 kts 236°
2026-05-03 20:39 42.98908 -82.32684 1752 ft 103 kts 221°
2026-05-03 20:40 42.98061 -82.32702 1980 ft 152 kts 167°
2026-05-03 20:40 42.97245 -82.31532 2152 ft 192 kts 121°
2026-05-03 20:40 42.97117 -82.29647 2310 ft 211 kts 78°
2026-05-03 20:40 42.97808 -82.27884 2460 ft 210 kts 49°
2026-05-03 20:41 42.98683 -82.26422 2574 ft 188 kts 41°
2026-05-03 20:41 42.99720 -82.25670 2774 ft 156 kts 359°
2026-05-03 20:41 43.00756 -82.25437 2991 ft 147 kts 358°
2026-05-03 20:41 43.01785 -82.25227 3009 ft 163 kts 356°
2026-05-03 20:42 43.02981 -82.25024 3179 ft 177 kts 356°
2026-05-03 20:42 43.04223 -82.24812 3457 ft 182 kts 356°
2026-05-03 20:42 43.05493 -82.24604 3726 ft 185 kts 357°
2026-05-03 20:42 43.06783 -82.24335 3985 ft 193 kts
2026-05-03 20:43 43.07995 -82.23525 4363 ft 193 kts 23°
2026-05-03 20:43 43.09138 -82.22600 4744 ft 189 kts 21°
2026-05-03 20:43 43.10279 -82.21728 5117 ft 187 kts 20°
2026-05-03 20:43 43.11422 -82.20870 5499 ft 186 kts 20°
2026-05-03 20:44 43.12540 -82.20032 5874 ft 185 kts 19°
2026-05-03 20:44 43.13658 -82.19188 6253 ft 182 kts 20°
2026-05-03 20:44 43.14756 -82.18361 6616 ft 178 kts 19°
2026-05-03 20:44 43.15830 -82.17552 6971 ft 175 kts 19°
2026-05-03 20:45 43.16950 -82.16719 7027 ft 191 kts 19°
2026-05-03 20:45 43.18154 -82.15814 7027 ft 203 kts 20°
2026-05-03 20:45 43.19409 -82.14861 7027 ft 209 kts 20°
2026-05-03 20:45 43.20694 -82.13886 7027 ft 213 kts 20°
2026-05-03 20:46 43.21998 -82.12899 7027 ft 215 kts 20°
2026-05-03 20:46 43.23310 -82.11908 7029 ft 216 kts 20°
2026-05-03 20:46 43.24626 -82.10912 7022 ft 217 kts 20°
2026-05-03 20:46 43.25959 -82.09905 7037 ft 219 kts 20°
2026-05-03 20:47 43.27293 -82.08893 7038 ft 219 kts 20°
2026-05-03 20:47 43.28629 -82.07881 7039 ft 219 kts 20°
2026-05-03 20:47 43.29960 -82.06872 7040 ft 218 kts 20°
2026-05-03 20:47 43.31298 -82.05903 7036 ft 214 kts 12°